When you browse on this site, cookies collect data to enhance your experience and personalize the content and advertising you see.
Visit our Privacy Policy to learn more. By continuing to use the site, you agree to this use of cookies and data.
  • In Romania
  • List of Countries
  • For 7 days
  • Water Temperature
  • Weather Map
  • Weather Widgets
  • user-avatar
    Login

    Hourly Weather Konotop

    Today, 27 January, Monday

    Time Temperature Precipitation Wind Pressure Humidity
    00:00 -1°C° 0 mm 3 mps 751 mmHg 89%
    01:00 -2°C° 0 mm 3 mps 751 mmHg 91%
    02:00 -2°C° 0 mm 3 mps 751 mmHg 92%
    03:00 -2°C° 0 mm 3 mps 751 mmHg 93%
    04:00 -2°C° 0 mm 3 mps 751 mmHg 94%
    05:00 -2°C° 0 mm 3 mps 750 mmHg 95%
    06:00 -2°C° 0 mm 3 mps 750 mmHg 95%
    07:00 -2°C° 0 mm 2 mps 750 mmHg 95%
    08:00 -2°C° 0 mm 2 mps 750 mmHg 95%
    09:00 -2°C° 0 mm 2 mps 750 mmHg 91%
    10:00 -1°C° 0 mm 2 mps 750 mmHg 88%
    11:00 0°C° 0 mm 3 mps 750 mmHg 84%
    12:00 0°C° 0 mm 3 mps 750 mmHg 83%
    13:00 0°C° 0 mm 3 mps 750 mmHg 82%
    14:00 +1°C° 0 mm 3 mps 750 mmHg 81%
    15:00 +1°C° 0 mm 2 mps 749 mmHg 83%
    16:00 +1°C° 0 mm 2 mps 749 mmHg 85%
    17:00 -1°C° 0 mm 2 mps 749 mmHg 87%
    18:00 -1°C° 0 mm 2 mps 749 mmHg 87%
    19:00 -1°C° 0 mm 2 mps 749 mmHg 87%
    20:00 -1°C° 0 mm 2 mps 748 mmHg 87%
    21:00 -2°C° 0 mm 2 mps 748 mmHg 87%
    22:00 -2°C° 0 mm 2 mps 748 mmHg 87%
    23:00 -2°C° 0 mm 2 mps 748 mmHg 88%

    Tomorrow, 28 January, Tuesday

    Time Temperature Precipitation Wind Pressure Humidity
    00:00 -2°C° 0 mm 2 mps 748 mmHg 88%
    01:00 -2°C° 0 mm 2 mps 748 mmHg 88%
    02:00 -2°C° 0 mm 2 mps 747 mmHg 89%
    03:00 -2°C° 0 mm 2 mps 747 mmHg 89%
    04:00 -2°C° 0 mm 2 mps 747 mmHg 89%
    05:00 -2°C° 0 mm 2 mps 746 mmHg 90%
    06:00 -2°C° 0 mm 2 mps 747 mmHg 89%
    07:00 -2°C° 0 mm 2 mps 747 mmHg 89%
    08:00 -1°C° 0 mm 2 mps 747 mmHg 88%
    09:00 -1°C° 0 mm 2 mps 747 mmHg 86%
    10:00 +1°C° 0 mm 2 mps 747 mmHg 84%
    11:00 +1°C° 0 mm 3 mps 746 mmHg 82%
    12:00 +1°C° 0 mm 3 mps 746 mmHg 83%
    13:00 +2°C° 0 mm 2 mps 746 mmHg 84%
    14:00 +2°C° 0 mm 2 mps 745 mmHg 85%
    15:00 +1°C° 0 mm 2 mps 745 mmHg 87%
    16:00 +1°C° 0 mm 2 mps 745 mmHg 89%
    17:00 0°C° 0 mm 3 mps 745 mmHg 91%
    18:00 0°C° 0 mm 3 mps 745 mmHg 90%
    19:00 0°C° 0 mm 3 mps 745 mmHg 90%
    20:00 -1°C° 0 mm 3 mps 745 mmHg 90%
    21:00 0°C° 0 mm 3 mps 744 mmHg 90%
    22:00 -1°C° 0 mm 4 mps 744 mmHg 89%
    23:00 -1°C° 0 mm 4 mps 744 mmHg 89%

    Day after tomorrow, 29 January, Wednesday

    Time Temperature Precipitation Wind Pressure Humidity
    00:00 -1°C° 0 mm 4 mps 743 mmHg 91%
    01:00 -1°C° 0 mm 4 mps 743 mmHg 93%
    02:00 -1°C° 0 mm 4 mps 743 mmHg 95%
    03:00 -1°C° 0.1 mm 4 mps 742 mmHg 95%
    04:00 0°C° 0.1 mm 4 mps 741 mmHg 96%
    05:00 0°C° 0.1 mm 5 mps 741 mmHg 96%
    06:00 0°C° 0.1 mm 5 mps 740 mmHg 96%
    07:00 0°C° 0.1 mm 5 mps 740 mmHg 95%
    08:00 0°C° 0.1 mm 5 mps 739 mmHg 95%
    09:00 -1°C° 0.2 mm 6 mps 739 mmHg 95%
    10:00 -1°C° 0.2 mm 6 mps 738 mmHg 95%
    11:00 -1°C° 0.2 mm 6 mps 738 mmHg 94%
    12:00 -1°C° 0.4 mm 6 mps 737 mmHg 95%
    13:00 -1°C° 0.4 mm 6 mps 737 mmHg 95%
    14:00 -1°C° 0.4 mm 6 mps 736 mmHg 95%
    15:00 +1°C° 0.4 mm 5 mps 736 mmHg 95%
    16:00 +1°C° 0.4 mm 5 mps 735 mmHg 95%
    17:00 +1°C° 0.4 mm 5 mps 735 mmHg 95%
    18:00 +1°C° 0.3 mm 6 mps 734 mmHg 95%
    19:00 +1°C° 0.3 mm 6 mps 734 mmHg 95%
    20:00 +1°C° 0.3 mm 6 mps 733 mmHg 95%
    21:00 +1°C° 0.3 mm 6 mps 733 mmHg 95%
    22:00 +1°C° 0.3 mm 6 mps 732 mmHg 95%
    23:00 +1°C° 0.3 mm 5 mps 732 mmHg 95%

    30 January, Thursday

    Time Temperature Precipitation Wind Pressure Humidity
    00:00 +1°C° 0.2 mm 5 mps 732 mmHg 96%
    01:00 +1°C° 0.2 mm 4 mps 732 mmHg 97%
    02:00 +2°C° 0.2 mm 3 mps 731 mmHg 97%
    03:00 +1°C° 0.5 mm 3 mps 731 mmHg 97%
    04:00 +1°C° 0.5 mm 3 mps 731 mmHg 98%
    05:00 +1°C° 0.5 mm 3 mps 731 mmHg 98%
    06:00 0°C° 0.7 mm 3 mps 731 mmHg 98%
    07:00 -1°C° 0.7 mm 4 mps 731 mmHg 98%
    08:00 -1°C° 0.7 mm 4 mps 731 mmHg 98%
    09:00 -1°C° 1 mm 4 mps 731 mmHg 98%
    10:00 -1°C° 1 mm 4 mps 731 mmHg 98%
    11:00 -1°C° 1 mm 4 mps 731 mmHg 98%
    12:00 -1°C° 0.7 mm 4 mps 730 mmHg 98%
    13:00 -1°C° 0.7 mm 4 mps 730 mmHg 98%
    14:00 0°C° 0.7 mm 3 mps 730 mmHg 98%
    15:00 -1°C° 0.2 mm 4 mps 731 mmHg 98%
    16:00 0°C° 0.2 mm 4 mps 731 mmHg 97%
    17:00 0°C° 0.2 mm 4 mps 731 mmHg 97%
    18:00 0°C° 0 mm 4 mps 732 mmHg 96%
    19:00 0°C° 0 mm 5 mps 732 mmHg 96%
    20:00 0°C° 0 mm 5 mps 733 mmHg 95%
    21:00 -1°C° 0 mm 5 mps 734 mmHg 94%
    22:00 -1°C° 0 mm 4 mps 734 mmHg 93%
    23:00 -1°C° 0 mm 4 mps 735 mmHg 92%

    31 January, Friday

    Time Temperature Precipitation Wind Pressure Humidity
    00:00 -1°C° 0.3 mm 4 mps 736 mmHg 93%
    01:00 -1°C° 0.3 mm 4 mps 736 mmHg 95%
    02:00 -1°C° 0.3 mm 4 mps 737 mmHg 97%
    03:00 -1°C° 0.3 mm 5 mps 738 mmHg 97%
    04:00 -1°C° 0.3 mm 5 mps 738 mmHg 97%
    05:00 -2°C° 0.3 mm 6 mps 739 mmHg 97%
    06:00 -2°C° 0.1 mm 6 mps 739 mmHg 96%
    07:00 -2°C° 0.1 mm 6 mps 740 mmHg 95%
    08:00 -2°C° 0.1 mm 6 mps 740 mmHg 94%
    09:00 -2°C° 0 mm 6 mps 741 mmHg 90%
    10:00 0°C° 0 mm 5 mps 741 mmHg 87%
    11:00 0°C° 0 mm 5 mps 741 mmHg 83%
    12:00 0°C° 0 mm 5 mps 741 mmHg 81%
    13:00 0°C° 0 mm 5 mps 741 mmHg 79%
    14:00 0°C° 0 mm 4 mps 741 mmHg 78%
    15:00 0°C° 0 mm 4 mps 741 mmHg 81%
    16:00 0°C° 0 mm 3 mps 741 mmHg 85%
    17:00 -1°C° 0 mm 3 mps 741 mmHg 89%
    18:00 -1°C° 0 mm 3 mps 741 mmHg 92%
    19:00 0°C° 0 mm 3 mps 741 mmHg 94%
    20:00 0°C° 0 mm 3 mps 741 mmHg 97%
    21:00 0°C° 0.1 mm 3 mps 741 mmHg 97%
    22:00 0°C° 0.1 mm 3 mps 741 mmHg 97%
    23:00 0°C° 0.1 mm 3 mps 741 mmHg 97%

    1 February, Saturday

    Time Temperature Precipitation Wind Pressure Humidity
    00:00 0°C° 0.3 mm 3 mps 741 mmHg 97%
    01:00 +1°C° 0.3 mm 2 mps 742 mmHg 98%
    02:00 +1°C° 0.3 mm 2 mps 742 mmHg 98%
    03:00 +1°C° 0.1 mm 2 mps 742 mmHg 98%
    04:00 +2°C° 0.1 mm 1 mps 742 mmHg 98%
    05:00 +2°C° 0.1 mm 1 mps 743 mmHg 98%
    06:00 +2°C° 0.1 mm 1 mps 743 mmHg 98%
    07:00 +2°C° 0.1 mm 1 mps 744 mmHg 98%
    08:00 +2°C° 0.1 mm 1 mps 744 mmHg 98%
    09:00 +3°C° 0.1 mm 1 mps 745 mmHg 98%
    10:00 +3°C° 0.1 mm 1 mps 745 mmHg 97%
    11:00 +3°C° 0.1 mm 1 mps 746 mmHg 97%
    12:00 +3°C° 0 mm 1 mps 746 mmHg 96%
    13:00 +3°C° 0 mm 1 mps 746 mmHg 94%
    14:00 +4°C° 0 mm 1 mps 746 mmHg 93%
    15:00 +3°C° 0 mm 1 mps 746 mmHg 93%
    16:00 +3°C° 0 mm 1 mps 746 mmHg 93%
    17:00 +2°C° 0 mm 2 mps 747 mmHg 93%
    18:00 +2°C° 0 mm 2 mps 747 mmHg 94%
    19:00 +2°C° 0 mm 2 mps 747 mmHg 95%
    20:00 +2°C° 0 mm 2 mps 747 mmHg 96%
    21:00 +1°C° 0 mm 3 mps 747 mmHg 96%
    22:00 0°C° 0 mm 3 mps 747 mmHg 96%
    23:00 0°C° 0 mm 3 mps 747 mmHg 96%
    Show more